Regional Weather Roundup
Issued by NWS

Home | Current Version | Previous Version | Graphics & Text | Print | Product List | Glossary On
Versions: 1 2 3 4 5 6 7 8 9 10 11 12 13 14 15 16 17 18 19 20 21 22 23 24 25 26 27 28 29 30 31 32 33 34 35 36 37 38 39 40 41 42 43 44 45 46 47 48 49 50
465
ASUS43 KMPX 221010
RWRMN
WEATHER ROUNDUP FOR MINNESOTA
NATIONAL WEATHER SERVICE TWIN CITIES/CHANHASSEN MN
500 AM CDT TUE AUG 22 2017


NOTE: "FAIR" INDICATES FEW OR NO CLOUDS BELOW 12,000 FEET WITH NO
SIGNIFICANT WEATHER AND/OR OBSTRUCTIONS TO VISIBILITY. N/A MEANS
CURRENT SKY AND/OR WEATHER CONDITIONS ARE NOT AVAILABLE.

MNZ060>063-068>070-221100-
   Twin Cities Metro

CITY           SKY/WX    TMP DP  RH WIND       PRES   REMARKS
TWIN CITIES    CLEAR     63  57  81 NW12      29.92R
ST PAUL        PTCLDY    63  60  90 NW14      29.92R
CRYSTAL        CLEAR     61  55  81 NW13      29.92R
BLAINE         CLEAR     63  61  94 NW9       29.92R
LAKEVILLE      CLEAR     59  59 100 W6        29.93R
EDEN PRAIRIE   CLEAR     63  57  81 NW14      29.92R
SOUTH ST PAUL  CLEAR     64  60  89 NW10      29.92R
LAKE ELMO      FAIR      63  61  94 NW14      29.92R
$$
MNZ001>005-007-008-013>017-022>024-027-028-221100-
   Northwest Minnesota

CITY           SKY/WX    TMP DP  RH WIND       PRES   REMARKS
BEMIDJI        CLEAR     46  46 100 NW5       29.97S
HALLOCK        CLEAR     48  45  87 NW6       29.97S
ROSEAU         MOCLDY    52  46  82 W7        29.95R
WARROAD        MOCLDY    48  46  93 W7        29.94S
THIEF RVR FALL CLEAR     47  45  93 W7        29.99
CROOKSTON      CLEAR     46  45  93 W3        30.00S
FOSSTON        CLEAR     45  45 100 CALM      30.00S FOG
DETROIT LAKES  CLEAR     50  50 100 NW3       30.02S
MOORHEAD       CLEAR     50  46  87 CALM      30.03S
PARK RAPIDS    CLEAR     50  47  89 W6        29.99R
MAHNOMEN       FAIR      47  47  99 SW3       30.00F
$$
MNZ006-009>011-018-025>026-221100-
   North Central Minnesota

CITY           SKY/WX    TMP DP  RH WIND       PRES   REMARKS
BAUDETTE       MOCLDY    49  49 100 W6        29.92S
FLAG ISLAND    CLEAR     52  48  87 W7        29.90R
INTL FALLS     PTCLDY    50  48  93 W5        29.90R
WASKISH        CLEAR     55  52  88 NW14      29.95S
BIG FORK       CLEAR     52  50  93 CALM      29.94R
LONGVILLE      CLEAR     55  52  88 NW5       29.96R
GRAND RAPIDS   CLEAR     54  52  93 NW14      29.95R
CRANE LAKE     PTCLDY    50  50 100 CALM      29.89S
ORR            MOCLDY    54  50  87 NW7       29.88R
COOK           CLOUDY    52  52 100 W7        29.90S FOG
WALKER         FAIR      50  49  96 W6        29.98R
$$
MNZ012-019>021-037-221100-
   Northeast Minnesota

CITY           SKY/WX    TMP DP  RH WIND       PRES   REMARKS
DULUTH         PTCLDY    53  53 100 NW10      29.88R
ELY            PTCLDY    54  52  94 W5        29.87R
HIBBING        CLEAR     51  50  96 NW12      29.90R
EVELETH        CLEAR     54  50  86 NW9       29.90R
DULUTH HARBOR  CLEAR     61  55  82 W16       29.87R
TWO HARBORS    CLEAR     55  52  88 NW3       29.83S
SILVER BAY     CLEAR     52  52 100 CALM      29.82S
GRAND MARAIS     N/A     56  54  93 W3        29.78F
G MARAIS ARPRT MOCLDY    52  48  87 NW6       29.81S
$$
MNZ029>031-032-039>041-046>048-054>057-064-221100-
   West Central Minnesota

CITY           SKY/WX    TMP DP  RH WIND       PRES   REMARKS
FERGUS FALLS   CLEAR     48  48 100 CALM      30.04S
WHEATON        CLEAR     54  48  82 W3        30.06S
MORRIS         CLEAR     54  52  94 NW8       30.02F
ALEXANDRIA     CLEAR     56  52  86 NW7       30.03R
ELBOW LAKE     FAIR      52  52  99 W8        30.04S
WADENA         CLEAR     52  52 100 W3        30.00S
GLENWOOD       CLEAR     54  52  94 NW8       30.02S
APPLETON       CLEAR     52  48  87 W5        30.04S
BENSON         CLEAR     52  50  93 N5        30.04S
ORTONVILLE     CLEAR     55  52  88 MISG      30.05R
MADISON        CLEAR     55  55 100 W7        30.06R
WILLMAR        FAIR      55  54  94 W8        30.03R
$$
MNZ033>034-036-042>043-049>051-058-059-221100-
   Central Minnesota

CITY           SKY/WX    TMP DP  RH WIND       PRES   REMARKS
ST CLOUD       CLEAR     56  54  93 NW10      29.97R
SAUK CENTRE    FAIR      55  52  91 W3        30.01R
PAYNESVILLE    CLEAR     55  53  93 W6        30.01R
AITKIN         CLEAR     54  52  94 W3        29.93S
PINE RIVER     CLEAR     52  48  87 W5        30.00R
BRAINERD       CLEAR     55  52  89 NW9       29.97R
STAPLES        CLEAR     48  48 100 W6        30.00R
LONG PRAIRIE   FAIR      52  50  93 W9        30.00S
LITTLE FALLS   CLEAR     54  50  87 NW5       29.98S
LITCHFIELD     CLEAR     59  55  88 NW8       30.00R
BUFFALO        CLEAR     59  53  79 NW8       29.97R
MAPLE LAKE     CLEAR     59  55  87 NW8       29.98R
HUTCHINSON     CLEAR     59  56  90 W7        30.00R
$$
MNZ037-044-045-052-053-221100-
   East Central Minnesota

CITY           SKY/WX    TMP DP  RH WIND       PRES   REMARKS
PRINCETON      CLEAR     59  55  88 NW7       29.95R
MORA           PTCLDY    55  50  82 NW10G17   29.94R
CAMBRIDGE      CLEAR     61  57  88 NW7       29.93R
RUSH CITY      MOCLDY    57  55  94 NW3       29.91S
MOOSE LAKE     CLEAR     54  52  94 NW5       29.89S
HINCKLEY       FAIR      57  55  94 NW8       29.91S
CLOQUET        CLEAR     54  52  94 W9        29.90R
MCGREGOR       CLEAR     54  52  94 W5        29.93R
$$
MNZ071>073-080-081-089-090-097-098-221100-
   Southwest Minnesota

CITY           SKY/WX    TMP DP  RH WIND       PRES   REMARKS
MONTEVIDEO     CLEAR     54  54 100 NW7       30.05R
GRANITE FALLS  CLEAR     55  54  95 W8        30.06R
CANBY          CLEAR     55  50  85 CALM      30.07S
MARSHALL       CLEAR     54  51  90 W9        30.06R
REDWOOD FALLS  CLEAR     57  53  86 NW10      30.02R
OLIVIA         CLEAR     54  52  94 NW7       30.01R
PIPESTONE      CLEAR     55  52  88 N7        30.08R
WINDOM         CLEAR     57  54  88 NW10      30.03R
WORTHINGTON    CLEAR     56  52  86 NW12      30.06R
JACKSON        CLEAR     55  52  88 NW12      30.02S
TRACY          CLEAR     56  54  92 NW10      30.05R
SLAYTON        CLEAR     54  49  84 NW10      30.06S
$$
MNZ065>067-074>077-082>085-091>093-221100-
   South Central Minnesota

CITY           SKY/WX    TMP DP  RH WIND       PRES   REMARKS
MANKATO        CLEAR     60  57  89 NW12      29.97R
NEW ULM        CLEAR     57  55  94 NW12      29.99R
ST JAMES       CLEAR     57  55  94 W12G17    30.01R
FAIRMONT       CLEAR     59  56  89 NW12      30.00R
GLENCOE        CLEAR     60  58  94 NW10      29.96R
FARIBAULT      CLEAR     61  59  94 W6        29.94S
OWATONNA       CLEAR     61  57  88 NW9       29.94S
WASECA         CLEAR     59  57  94 NW7       29.97R
ALBERT LEA     CLEAR     64  63  94 NW7       29.95S
$$
MNZ078>079-086>088-094>096-221100-
   Southeast Minnesota

CITY           SKY/WX    TMP DP  RH WIND       PRES   REMARKS
ROCHESTER      CLEAR     61  60  97 NW13      29.92R
RED WING       CLEAR     63  59  88 NW7       29.89R
STANTON        CLEAR     61  58  92 W6        29.91R
DODGE CENTER   CLEAR     61  57  88 NW12      29.93R
WINONA         CLOUDY    66  63  88 NW7       29.86S
AUSTIN         CLEAR     63  59  88 NW12      29.93R
PRESTON        CLOUDY    61  59  91 NW13      29.91S
$$
ABBREVIATIONS USED IN REMARKS
   TC - TEMPERATURES IN CELSIUS
  WCI - WIND CHILL INDEX
   HX - HEAT INDEX
  VSB - VISIBILITY
$$




USA.gov is the U.S. government's official web portal to all federal, state and local government web resources and services.